Time,TemperatureF,DewpointF,PressureIn,WindDirection,WindDirectionDegrees,WindSpeedMPH,WindSpeedGustMPH,Humidity,HourlyPrecipIn,Conditions,Clouds,dailyrainin,SoftwareType,DateUTC
2013-03-16 00:00:00,41.4,28.9,29.92,NNW,333,1.0,4.0,61,0.00,RA,,0.00,WeatherDisplay:10.37,2013-03-15 23:00:00,
2013-03-16 00:10:00,41.3,28.9,29.92,NNW,342,2.0,5.0,61,0.00,CLR,,0.00,WeatherDisplay:10.37,2013-03-15 23:10:00,
2013-03-16 00:20:00,41.0,29.0,29.92,North,351,1.0,9.0,62,0.00,CLR,,0.00,WeatherDisplay:10.37,2013-03-15 23:20:00,
2013-03-16 00:30:00,40.9,28.9,29.92,NNE,16,0.0,5.0,62,0.00,CLR,,0.00,WeatherDisplay:10.37,2013-03-15 23:30:00,
2013-03-16 00:40:00,40.6,29.0,29.93,ENE,61,0.0,5.0,63,0.00,CLR,,0.00,WeatherDisplay:10.37,2013-03-15 23:40:00,
2013-03-16 00:50:00,40.5,29.3,29.94,North,0,0.0,4.0,64,0.00,CLR,,0.00,WeatherDisplay:10.37,2013-03-15 23:50:00,
2013-03-16 01:00:00,40.5,29.3,29.94,ENE,73,1.0,4.0,64,0.00,CLR,,0.00,WeatherDisplay:10.37,2013-03-16 00:00:00,
2013-03-16 01:10:00,40.6,29.0,29.94,North,2,1.0,6.0,63,0.00,CLR,,0.00,WeatherDisplay:10.37,2013-03-16 00:10:00,
2013-03-16 01:20:00,40.6,28.6,29.95,North,354,1.0,5.0,62,0.00,CLR,,0.00,WeatherDisplay:10.37,2013-03-16 00:20:00,
2013-03-16 01:30:00,40.6,29.0,29.96,North,8,0.0,5.0,63,0.00,CLR,,0.00,WeatherDisplay:10.37,2013-03-16 00:30:00,
2013-03-16 01:40:00,40.7,29.1,29.96,NW,309,0.0,4.0,63,0.00,CLR,,0.00,WeatherDisplay:10.37,2013-03-16 00:40:00,
2013-03-16 01:50:00,40.8,28.8,29.97,NNE,16,1.0,4.0,62,0.00,CLR,,0.00,WeatherDisplay:10.37,2013-03-16 00:50:00,
2013-03-16 02:00:00,40.7,29.1,29.97,NNW,332,1.0,6.0,63,0.00,CLR,,0.00,WeatherDisplay:10.37,2013-03-16 01:00:00,
2013-03-16 02:10:00,40.6,29.4,29.98,NW,309,1.0,6.0,64,0.00,CLR,,0.00,WeatherDisplay:10.37,2013-03-16 01:10:00,
2013-03-16 02:20:00,40.4,29.2,29.98,NE,43,1.0,5.0,64,0.00,CLR,,0.00,WeatherDisplay:10.37,2013-03-16 01:20:00,
2013-03-16 02:30:00,40.2,29.4,29.98,NNW,346,0.0,5.0,65,0.00,CLR,,0.00,WeatherDisplay:10.37,2013-03-16 01:30:00,
2013-03-16 02:40:00,40.1,29.6,29.98,North,357,1.0,4.0,66,0.00,CLR,,0.00,WeatherDisplay:10.37,2013-03-16 01:40:00,
2013-03-16 02:50:00,39.9,29.4,29.98,NNE,20,1.0,7.0,66,0.00,CLR,,0.00,WeatherDisplay:10.37,2013-03-16 01:50:00,
2013-03-16 03:00:00,39.7,29.3,29.98,NE,43,2.0,4.0,66,0.00,CLR,,0.00,WeatherDisplay:10.37,2013-03-16 02:00:00,
2013-03-16 03:20:00,39.6,29.5,29.99,NNE,22,1.0,6.0,67,0.00,CLR,,0.00,WeatherDisplay:10.37,2013-03-16 02:20:00,
2013-03-16 03:30:00,39.5,29.1,29.99,NNE,21,1.0,7.0,66,0.00,CLR,,0.00,WeatherDisplay:10.37,2013-03-16 02:30:00,
2013-03-16 03:40:00,39.5,29.4,29.99,NNE,19,0.0,5.0,67,0.00,CLR,,0.00,WeatherDisplay:10.37,2013-03-16 02:40:00,
2013-03-16 03:50:00,39.3,29.3,29.99,NE,48,2.0,6.0,67,0.00,CLR,,0.00,WeatherDisplay:10.37,2013-03-16 02:50:00,
2013-03-16 04:00:00,39.3,29.6,30.00,NW,326,1.0,4.0,68,0.00,CLR,,0.00,WeatherDisplay:10.37,2013-03-16 03:00:00,
2013-03-16 04:10:00,39.3,29.6,30.00,NNW,343,1.0,5.0,68,0.00,CLR,,0.00,WeatherDisplay:10.37,2013-03-16 03:10:00,
2013-03-16 04:20:00,39.4,29.7,30.00,North,350,2.0,5.0,68,0.00,CLR,,0.00,WeatherDisplay:10.37,2013-03-16 03:20:00,
2013-03-16 04:30:00,39.4,29.7,30.01,North,350,1.0,6.0,68,0.00,CLR,,0.00,WeatherDisplay:10.37,2013-03-16 03:30:00,
2013-03-16 04:40:00,39.5,29.4,30.01,North,357,0.0,5.0,67,0.00,CLR,,0.00,WeatherDisplay:10.37,2013-03-16 03:40:00,
2013-03-16 04:50:00,39.4,29.3,30.01,NNE,25,1.0,6.0,67,0.00,CLR,,0.00,WeatherDisplay:10.37,2013-03-16 03:50:00,
2013-03-16 05:00:00,39.5,29.4,30.02,North,2,1.0,4.0,67,0.00,CLR,,0.00,WeatherDisplay:10.37,2013-03-16 04:00:00,
2013-03-16 05:10:00,39.5,29.4,30.02,NNE,28,1.0,5.0,67,0.00,CLR,,0.00,WeatherDisplay:10.37,2013-03-16 04:10:00,
2013-03-16 05:20:00,39.3,29.3,30.02,NNE,27,1.0,7.0,67,0.00,CLR,,0.00,WeatherDisplay:10.37,2013-03-16 04:20:00,
2013-03-16 05:30:00,39.4,29.7,30.03,North,7,2.0,4.0,68,0.00,CLR,,0.00,WeatherDisplay:10.37,2013-03-16 04:30:00,
2013-03-16 05:40:00,39.3,29.6,30.03,NNW,342,1.0,6.0,68,0.00,CLR,,0.00,WeatherDisplay:10.37,2013-03-16 04:40:00,
2013-03-16 05:50:00,39.4,29.7,30.03,NNE,20,2.0,7.0,68,0.00,CLR,,0.00,WeatherDisplay:10.37,2013-03-16 04:50:00,
2013-03-16 06:00:00,39.4,29.3,30.04,North,5,2.0,7.0,67,0.00,CLR,,0.00,WeatherDisplay:10.37,2013-03-16 05:00:00,
2013-03-16 06:10:00,39.5,29.8,30.04,NNE,14,1.0,4.0,68,0.00,CLR,,0.00,WeatherDisplay:10.37,2013-03-16 05:10:00,
2013-03-16 06:20:00,39.5,29.8,30.05,North,4,2.0,6.0,68,0.00,CLR,,0.00,WeatherDisplay:10.37,2013-03-16 05:20:00,
2013-03-16 06:30:00,39.4,29.7,30.05,North,10,3.0,8.0,68,0.00,CLR,,0.00,WeatherDisplay:10.37,2013-03-16 05:30:00,
2013-03-16 06:40:00,39.3,30.0,30.05,NNE,15,3.0,7.0,69,0.00,CLR,,0.00,WeatherDisplay:10.37,2013-03-16 05:40:00,
2013-03-16 07:00:00,39.5,30.1,30.07,North,356,2.0,7.0,69,0.00,CLR,,0.00,WeatherDisplay:10.37,2013-03-16 06:00:00,
2013-03-16 07:10:00,39.6,29.9,30.07,NNE,19,2.0,4.0,68,0.00,CLR,,0.00,WeatherDisplay:10.37,2013-03-16 06:10:00,
2013-03-16 07:20:00,39.7,30.0,30.08,NNE,16,0.0,6.0,68,0.00,CLR,,0.00,WeatherDisplay:10.37,2013-03-16 06:20:00,
2013-03-16 07:30:00,39.8,30.1,30.08,North,355,0.0,6.0,68,0.00,CLR,,0.00,WeatherDisplay:10.37,2013-03-16 06:30:00,
2013-03-16 07:40:00,39.9,29.8,30.08,North,11,0.0,4.0,67,0.00,CLR,,0.00,WeatherDisplay:10.37,2013-03-16 06:40:00,
2013-03-16 07:50:00,40.0,29.9,30.08,NNE,19,1.0,7.0,67,0.00,CLR,,0.00,WeatherDisplay:10.37,2013-03-16 06:50:00,
2013-03-16 08:00:00,40.1,29.6,30.09,NNE,33,2.0,5.0,66,0.00,CLR,,0.00,WeatherDisplay:10.37,2013-03-16 07:00:00,
2013-03-16 08:10:00,40.4,29.9,30.09,NNE,21,0.0,5.0,66,0.00,CLR,,0.00,WeatherDisplay:10.37,2013-03-16 07:10:00,
2013-03-16 08:20:00,40.7,30.6,30.10,North,9,1.0,5.0,67,0.00,CLR,,0.00,WeatherDisplay:10.37,2013-03-16 07:20:00,
2013-03-16 08:30:00,41.2,29.9,30.10,NNE,29,1.0,7.0,64,0.00,CLR,,0.00,WeatherDisplay:10.37,2013-03-16 07:30:00,
2013-03-16 08:40:00,41.5,29.5,30.10,NNE,30,2.0,9.0,62,0.00,CLR,,0.00,WeatherDisplay:10.37,2013-03-16 07:40:00,
2013-03-16 08:50:00,42.2,29.3,30.10,NNE,32,3.0,8.0,60,0.00,CLR,,0.00,WeatherDisplay:10.37,2013-03-16 07:50:00,
2013-03-16 09:00:00,42.9,30.0,30.10,North,8,2.0,8.0,60,0.00,CLR,,0.00,WeatherDisplay:10.37,2013-03-16 08:00:00,
2013-03-16 09:10:00,43.4,29.2,30.11,NNE,18,5.0,13.0,57,0.00,CLR,,0.00,WeatherDisplay:10.37,2013-03-16 08:10:00,
2013-03-16 09:20:00,43.2,29.0,30.11,NNE,33,2.0,8.0,57,0.00,CLR,,0.00,WeatherDisplay:10.37,2013-03-16 08:20:00,
2013-03-16 09:30:00,43.4,28.7,30.11,NNE,29,2.0,10.0,56,0.00,CLR,,0.00,WeatherDisplay:10.37,2013-03-16 08:30:00,
2013-03-16 09:40:00,43.7,28.1,30.12,North,5,5.0,12.0,54,0.00,CLR,,0.00,WeatherDisplay:10.37,2013-03-16 08:40:00,
2013-03-16 09:50:00,44.1,28.5,30.12,NNE,31,2.0,10.0,54,0.00,CLR,,0.00,WeatherDisplay:10.37,2013-03-16 08:50:00,
2013-03-16 10:00:00,43.7,28.2,30.12,NNE,28,1.0,12.0,54,0.00,CLR,,0.00,WeatherDisplay:10.37,2013-03-16 09:00:00,
2013-03-16 10:10:00,44.7,28.2,30.12,NW,318,2.0,8.0,52,0.00,CLR,,0.00,WeatherDisplay:10.37,2013-03-16 09:10:00,
2013-03-16 10:20:00,45.4,27.8,30.12,NE,40,2.0,8.0,50,0.00,CLR,,0.00,WeatherDisplay:10.37,2013-03-16 09:20:00,
2013-03-16 10:30:00,45.7,27.6,30.13,NNE,19,2.0,7.0,49,0.00,CLR,,0.00,WeatherDisplay:10.37,2013-03-16 09:30:00,
2013-03-16 10:40:00,46.2,28.1,30.12,NNE,19,1.0,6.0,49,0.00,CLR,,0.00,WeatherDisplay:10.37,2013-03-16 09:40:00,
2013-03-16 10:50:00,46.2,27.6,30.13,NE,43,2.0,9.0,48,0.00,CLR,,0.00,WeatherDisplay:10.37,2013-03-16 09:50:00,
2013-03-16 11:00:00,46.6,27.4,30.13,NE,40,1.0,9.0,47,0.00,CLR,,0.00,WeatherDisplay:10.37,2013-03-16 10:00:00,
2013-03-16 11:10:00,46.8,27.6,30.13,NE,53,2.0,12.0,47,0.00,CLR,,0.00,WeatherDisplay:10.37,2013-03-16 10:10:00,
2013-03-16 11:20:00,47.6,27.8,30.13,NNE,12,2.0,9.0,46,0.00,CLR,,0.00,WeatherDisplay:10.37,2013-03-16 10:20:00,
2013-03-16 11:30:00,48.0,28.7,30.13,ENE,58,1.0,8.0,47,0.00,CLR,,0.00,WeatherDisplay:10.37,2013-03-16 10:30:00,
2013-03-16 11:40:00,48.1,27.2,30.14,North,11,1.0,7.0,44,0.00,CLR,,0.00,WeatherDisplay:10.37,2013-03-16 10:40:00,
2013-03-16 11:50:00,47.9,25.9,30.14,NNW,337,1.0,7.0,42,0.00,CLR,,0.00,WeatherDisplay:10.37,2013-03-16 10:50:00,
2013-03-16 12:00:00,48.3,26.8,30.14,NNE,30,1.0,6.0,43,0.00,CLR,,0.00,WeatherDisplay:10.37,2013-03-16 11:00:00,
2013-03-16 12:10:00,48.8,26.1,30.14,NE,50,2.0,9.0,41,0.00,CLR,,0.00,WeatherDisplay:10.37,2013-03-16 11:10:00,
2013-03-16 12:20:00,48.5,26.4,30.14,WNW,296,1.0,5.0,42,0.00,CLR,,0.00,WeatherDisplay:10.37,2013-03-16 11:20:00,
2013-03-16 12:30:00,48.6,26.0,30.14,NNE,21,3.0,6.0,41,0.00,CLR,,0.00,WeatherDisplay:10.37,2013-03-16 11:30:00,
2013-03-16 12:40:00,48.3,29.0,30.14,East,83,1.0,6.0,47,0.00,CLR,,0.00,WeatherDisplay:10.37,2013-03-16 11:40:00,
2013-03-16 12:50:00,48.8,30.0,30.14,SSE,155,0.0,3.0,48,0.00,CLR,,0.00,WeatherDisplay:10.37,2013-03-16 11:50:00,
2013-03-16 13:00:00,49.2,28.7,30.13,SSE,165,1.0,6.0,45,0.00,CLR,,0.00,WeatherDisplay:10.37,2013-03-16 12:00:00,
2013-03-16 13:10:00,49.4,27.9,30.13,SE,142,2.0,6.0,43,0.00,CLR,,0.00,WeatherDisplay:10.37,2013-03-16 12:10:00,
2013-03-16 13:20:00,49.7,28.6,30.13,SE,146,1.0,5.0,44,0.00,CLR,,0.00,WeatherDisplay:10.37,2013-03-16 12:20:00,
2013-03-16 13:30:00,49.1,28.7,30.13,South,180,0.0,5.0,45,0.00,CLR,,0.00,WeatherDisplay:10.37,2013-03-16 12:30:00,
2013-03-16 13:40:00,48.8,28.9,30.13,SE,139,1.0,5.0,46,0.00,CLR,,0.00,WeatherDisplay:10.37,2013-03-16 12:40:00,
2013-03-16 13:50:00,49.0,28.5,30.13,ESE,103,1.0,4.0,45,0.00,CLR,,0.00,WeatherDisplay:10.37,2013-03-16 12:50:00,
2013-03-16 14:00:00,48.9,29.6,30.13,SSE,147,1.0,6.0,47,0.00,CLR,,0.00,WeatherDisplay:10.37,2013-03-16 13:00:00,
2013-03-16 14:10:00,49.6,29.6,30.13,SE,133,1.0,5.0,46,0.00,CLR,,0.00,WeatherDisplay:10.37,2013-03-16 13:10:00,
2013-03-16 14:20:00,50.9,30.3,30.13,SSE,167,0.0,6.0,45,0.00,CLR,,0.00,WeatherDisplay:10.37,2013-03-16 13:20:00,
2013-03-16 14:30:00,52.5,31.2,30.13,South,183,0.0,3.0,44,0.00,CLR,,0.00,WeatherDisplay:10.37,2013-03-16 13:30:00,
2013-03-16 14:40:00,51.7,30.5,30.12,SSE,156,1.0,5.0,44,0.00,CLR,,0.00,WeatherDisplay:10.37,2013-03-16 13:40:00,
2013-03-16 14:50:00,50.3,29.7,30.13,South,179,2.0,9.0,45,0.00,CLR,,0.00,WeatherDisplay:10.37,2013-03-16 13:50:00,
2013-03-16 15:00:00,50.6,29.5,30.13,South,172,0.0,5.0,44,0.00,CLR,,0.00,WeatherDisplay:10.37,2013-03-16 14:00:00,
2013-03-16 15:10:00,51.9,30.1,30.12,ESE,117,2.0,5.0,43,0.00,CLR,,0.00,WeatherDisplay:10.37,2013-03-16 14:10:00,
2013-03-16 15:20:00,51.7,30.4,30.13,SE,132,2.0,5.0,44,0.00,CLR,,0.00,WeatherDisplay:10.37,2013-03-16 14:20:00,
2013-03-16 15:30:00,51.8,30.0,30.12,SSE,148,1.0,6.0,43,0.00,CLR,,0.00,WeatherDisplay:10.37,2013-03-16 14:30:00,
2013-03-16 15:40:00,51.5,29.7,30.13,SSW,193,2.0,6.0,43,0.00,CLR,,0.00,WeatherDisplay:10.37,2013-03-16 14:40:00,
2013-03-16 15:50:00,50.8,30.2,30.13,SE,146,1.0,5.0,45,0.00,CLR,,0.00,WeatherDisplay:10.37,2013-03-16 14:50:00,
2013-03-16 16:00:00,50.0,30.0,30.13,SSW,193,2.0,7.0,46,0.00,CLR,,0.00,WeatherDisplay:10.37,2013-03-16 15:00:00,
2013-03-16 16:10:00,49.7,29.8,30.13,SSW,201,2.0,7.0,46,0.00,CLR,,0.00,WeatherDisplay:10.37,2013-03-16 15:10:00,
2013-03-16 16:20:00,49.7,30.8,30.13,SW,217,2.0,8.0,48,0.00,CLR,,0.00,WeatherDisplay:10.37,2013-03-16 15:20:00,
2013-03-16 16:30:00,50.2,29.6,30.14,SW,222,3.0,8.0,45,0.00,CLR,,0.00,WeatherDisplay:10.37,2013-03-16 15:30:00,
2013-03-16 16:40:00,49.8,30.9,30.14,SW,231,2.0,8.0,48,0.00,CLR,,0.00,WeatherDisplay:10.37,2013-03-16 15:40:00,
2013-03-16 16:50:00,49.7,31.3,30.14,SSW,197,1.0,7.0,49,0.00,CLR,,0.00,WeatherDisplay:10.37,2013-03-16 15:50:00,
2013-03-16 17:00:00,49.6,32.2,30.14,South,186,2.0,8.0,51,0.00,CLR,,0.00,WeatherDisplay:10.37,2013-03-16 16:00:00,
2013-03-16 17:10:00,48.9,31.6,30.14,South,191,2.0,7.0,51,0.00,CLR,,0.00,WeatherDisplay:10.37,2013-03-16 16:10:00,
2013-03-16 17:20:00,48.7,32.3,30.15,SSW,203,1.0,7.0,53,0.00,CLR,,0.00,WeatherDisplay:10.37,2013-03-16 16:20:00,
2013-03-16 17:30:00,48.7,32.3,30.15,SW,228,5.0,9.0,53,0.00,CLR,,0.00,WeatherDisplay:10.37,2013-03-16 16:30:00,
2013-03-16 17:40:00,48.4,32.5,30.14,SSW,193,2.0,7.0,54,0.00,CLR,,0.00,WeatherDisplay:10.37,2013-03-16 16:40:00,
2013-03-16 17:50:00,48.1,32.2,30.15,SW,223,3.0,7.0,54,0.00,CLR,,0.00,WeatherDisplay:10.37,2013-03-16 16:50:00,
2013-03-16 18:00:00,47.5,32.6,30.15,SW,218,1.0,8.0,56,0.00,CLR,,0.00,WeatherDisplay:10.37,2013-03-16 17:00:00,
2013-03-16 18:10:00,47.2,31.8,30.16,WSW,249,3.0,6.0,55,0.00,CLR,,0.00,WeatherDisplay:10.37,2013-03-16 17:10:00,
2013-03-16 18:20:00,46.9,32.0,30.16,SW,233,0.0,5.0,56,0.00,CLR,,0.00,WeatherDisplay:10.37,2013-03-16 17:20:00,
2013-03-16 18:30:00,46.5,32.1,30.16,SW,234,1.0,6.0,57,0.00,CLR,,0.00,WeatherDisplay:10.37,2013-03-16 17:30:00,
2013-03-16 18:40:00,46.3,31.9,30.16,West,273,1.0,5.0,57,0.00,CLR,,0.00,WeatherDisplay:10.37,2013-03-16 17:40:00,
2013-03-16 18:50:00,46.1,32.1,30.15,WSW,246,1.0,4.0,58,0.00,CLR,,0.00,WeatherDisplay:10.37,2013-03-16 17:50:00,
2013-03-16 19:00:00,45.9,31.9,30.16,WSW,245,1.0,4.0,58,0.00,CLR,,0.00,WeatherDisplay:10.37,2013-03-16 18:00:00,
2013-03-16 19:10:00,45.7,32.2,30.17,SSW,207,0.0,3.0,59,0.00,CLR,,0.00,WeatherDisplay:10.37,2013-03-16 18:10:00,
2013-03-16 19:20:00,45.5,32.0,30.17,SSW,208,0.0,3.0,59,0.00,CLR,,0.00,WeatherDisplay:10.37,2013-03-16 18:20:00,
2013-03-16 19:30:00,45.5,32.0,30.17,SSW,208,1.0,3.0,59,0.00,CLR,,0.00,WeatherDisplay:10.37,2013-03-16 18:30:00,
2013-03-16 19:40:00,45.4,31.9,30.17,SSW,208,1.0,3.0,59,0.00,CLR,,0.00,WeatherDisplay:10.37,2013-03-16 18:40:00,
2013-03-16 19:50:00,45.4,31.9,30.17,SSW,208,0.0,2.0,59,0.00,CLR,,0.00,WeatherDisplay:10.37,2013-03-16 18:50:00,
2013-03-16 20:00:00,45.3,31.8,30.18,SSW,208,1.0,3.0,59,0.00,CLR,,0.00,WeatherDisplay:10.37,2013-03-16 19:00:00,
2013-03-16 20:10:00,45.3,32.2,30.18,SSW,208,0.0,2.0,60,0.00,CLR,,0.00,WeatherDisplay:10.37,2013-03-16 19:10:00,
2013-03-16 20:20:00,45.3,32.2,30.18,SSW,208,0.0,2.0,60,0.00,CLR,,0.00,WeatherDisplay:10.37,2013-03-16 19:20:00,
2013-03-16 20:30:00,45.4,31.9,30.18,SSW,208,0.0,2.0,59,0.00,CLR,,0.00,WeatherDisplay:10.37,2013-03-16 19:30:00,
2013-03-16 20:40:00,45.4,32.3,30.18,SSW,208,0.0,1.0,60,0.00,CLR,,0.00,WeatherDisplay:10.37,2013-03-16 19:40:00,
2013-03-16 20:50:00,45.4,32.3,30.18,SSW,208,0.0,1.0,60,0.00,CLR,,0.00,WeatherDisplay:10.37,2013-03-16 19:50:00,
2013-03-16 21:00:00,45.4,32.7,30.18,SSW,208,0.0,2.0,61,0.00,CLR,,0.00,WeatherDisplay:10.37,2013-03-16 20:00:00,
2013-03-16 21:10:00,45.4,32.7,30.18,SSW,208,0.0,1.0,61,0.00,CLR,,0.00,WeatherDisplay:10.37,2013-03-16 20:10:00,
2013-03-16 21:20:00,45.3,33.0,30.18,SSW,208,0.0,0.0,62,0.00,CLR,,0.00,WeatherDisplay:10.37,2013-03-16 20:20:00,
2013-03-16 21:30:00,45.2,33.3,30.19,SSW,208,0.0,1.0,63,0.00,CLR,,0.00,WeatherDisplay:10.37,2013-03-16 20:30:00,
2013-03-16 21:40:00,44.8,32.5,30.19,WNW,299,1.0,5.0,62,0.00,CLR,,0.00,WeatherDisplay:10.37,2013-03-16 20:40:00,
2013-03-16 21:50:00,44.4,32.6,30.19,WNW,302,0.0,1.0,63,0.00,CLR,,0.00,WeatherDisplay:10.37,2013-03-16 20:50:00,
2013-03-16 22:00:00,44.3,32.5,30.19,NW,319,0.0,2.0,63,0.00,CLR,,0.00,WeatherDisplay:10.37,2013-03-16 21:00:00,
2013-03-16 22:10:00,44.1,32.3,30.19,NW,319,0.0,1.0,63,0.00,CLR,,0.00,WeatherDisplay:10.37,2013-03-16 21:10:00,
2013-03-16 22:20:00,44.1,32.3,30.19,NW,320,0.0,1.0,63,0.00,CLR,,0.00,WeatherDisplay:10.37,2013-03-16 21:20:00,
2013-03-16 22:30:00,44.2,32.4,30.19,NW,324,0.0,1.0,63,0.00,CLR,,0.00,WeatherDisplay:10.37,2013-03-16 21:30:00,
2013-03-16 22:40:00,44.3,32.1,30.19,NW,324,0.0,1.0,62,0.00,CLR,,0.00,WeatherDisplay:10.37,2013-03-16 21:40:00,
2013-03-16 22:50:00,44.3,31.7,30.19,NW,324,0.0,2.0,61,0.00,CLR,,0.00,WeatherDisplay:10.37,2013-03-16 21:50:00,
2013-03-16 23:00:00,44.2,32.0,30.19,NW,324,0.0,1.0,62,0.00,CLR,,0.00,WeatherDisplay:10.37,2013-03-16 22:00:00,
2013-03-16 23:10:00,44.0,31.8,30.19,NW,324,0.0,2.0,62,0.00,CLR,,0.00,WeatherDisplay:10.37,2013-03-16 22:10:00,
2013-03-16 23:20:00,44.0,32.2,30.19,NW,324,0.0,1.0,63,0.00,CLR,,0.00,WeatherDisplay:10.37,2013-03-16 22:20:00,
2013-03-16 23:30:00,43.9,32.1,30.18,NW,324,0.0,1.0,63,0.00,CLR,,0.00,WeatherDisplay:10.37,2013-03-16 22:30:00,
2013-03-16 23:40:00,44.0,32.2,30.18,NW,324,0.0,1.0,63,0.00,CLR,,0.00,WeatherDisplay:10.37,2013-03-16 22:40:00,
2013-03-16 23:50:00,44.1,32.3,30.18,NW,324,0.0,1.0,63,0.00,CLR,,0.00,WeatherDisplay:10.37,2013-03-16 22:50:00,